DW7240 Weather Reports


time (UTC)temp
F
wind
direction
speed
knots
gust
knots
rain 1hr
in
rain 24hr
in
rain mn
in
humidity
%
barometer
mb
20260506033503 43 170 4.3 4.3 0.00 0.00 0.00 94 1008.4
20260506033002 43 170 4.3 4.3 0.00 0.00 0.00 94 1008.2
20260506032002 43 170 4.3 4.3 0.00 0.00 0.00 94 1008.1
20260506031002 43 180 2.6 2.6 0.00 0.00 0.00 94 1008.1
20260506030502 43 180 2.6 2.6 0.00 0.00 0.00 94 1008.4
20260506030002 43 180 2.6 2.6 0.00 0.00 0.00 94 1008.4
20260506025502 43 180 2.6 2.6 0.00 0.00 0.00 94 1008.3
20260506025002 43 180 2.6 2.6 0.00 0.00 0.00 93 1008.4
20260506024503 43 180 2.6 2.6 0.00 0.00 0.00 93 1008.5
20260506024002 43 180 2.6 2.6 0.00 0.00 0.00 93 1008.5
20260506023502 43 180 2.6 2.6 0.00 0.00 0.00 92 1008.5
20260506023002 43 180 2.6 2.6 0.00 0.00 0.00 93 1008.6
20260506022502 43 180 2.6 2.6 0.00 0.00 0.00 92 1008.6
20260506022003 43 180 2.6 4.3 0.00 0.00 0.00 92 1008.9
20260506021002 43 350 4.3 4.3 0.00 0.00 0.00 92 1008.6
20260506020502 43 350 4.3 4.3 0.00 0.00 0.00 91 1008.4
20260506020002 43 350 4.3 4.3 0.00 0.00 0.00 91 1008.5
20260506014502 43 350 4.3 4.3 0.00 0.00 0.00 90 1008.3
20260506014002 43 350 4.3 4.3 0.00 0.00 0.00 89 1007.9
20260506013002 44 350 4.3 4.3 0.00 0.00 0.00 87 1008.3
20260506012502 44 350 4.3 4.3 0.00 0.00 0.00 86 1008.3
20260506012002 44 350 4.3 4.3 0.00 0.00 0.00 84 1008.2
20260506011502 45 350 4.3 4.3 0.00 0.00 0.00 80 1008.1
20260506011002 46 350 4.3 4.3 0.00 0.00 0.00 74 1007.9
20260506010002 46 350 4.3 4.3 0.00 0.00 0.00 75 1007.6
20260506005502 46 350 4.3 4.3 0.00 0.00 0.00 75 1007.5
20260506005002 46 350 4.3 4.3 0.00 0.00 0.00 73 1007.4
20260506004503 46 350 4.3 4.3 0.00 0.00 0.00 74 1007.2
20260506004002 46 350 4.3 4.3 0.00 0.00 0.00 75 1007.3
20260506003503 46 350 4.3 4.3 0.00 0.00 0.00 74 1007.1
20260506003002 46 350 4.3 4.3 0.00 0.00 0.00 74 1007.0
20260506002502 46 350 4.3 4.3 0.00 0.00 0.00 74 1007.1
20260506002002 46 350 4.3 7.8 0.00 0.00 0.00 74 1007.1
20260506001502 46 350 7.8 7.8 0.00 0.00 0.00 75 1006.9
20260506001002 46 350 7.8 7.8 0.00 0.00 0.00 74 1006.8
20260506000502 46 350 7.8 7.8 0.00 0.00 0.00 75 1006.8
20260506000002 46 350 7.8 7.8 0.00 0.00 0.00 74 1006.7
20260505235002 46 350 7.8 7.8 0.00 0.00 0.00 75 1006.7
20260505234502 46 350 7.8 7.8 0.00 0.00 0.00 75 1006.6
20260505234002 46 350 7.8 7.8 0.00 0.00 0.00 74 1006.6
20260505233503 46 350 7.8 7.8 0.00 0.00 0.00 74 1006.4
20260505233002 46 350 7.8 7.8 0.00 0.00 0.00 73 1006.5
20260505232503 46 350 7.8 7.8 0.00 0.00 0.00 74 1006.5
20260505232002 46 350 7.8 7.8 0.00 0.00 0.00 74 1006.6
20260505230502 47 330 6.1 6.1 0.00 0.00 0.00 75 1006.8
20260505230003 47 330 6.1 6.1 0.00 0.00 0.00 74 1006.8
20260505225502 47 330 6.1 6.1 0.00 0.00 0.00 74 1006.7
20260505224502 47 330 6.1 6.1 0.00 0.00 0.00 75 1006.7
20260505224002 47 330 6.1 6.1 0.00 0.00 0.00 74 1006.9
20260505223502 47 330 6.1 6.1 0.00 0.00 0.00 75 1006.9
20260505223003 47 330 6.1 6.1 0.00 0.00 0.00 76 1006.8
20260505222502 47 330 6.1 6.1 0.00 0.00 0.00 78 1006.7
20260505222002 47 330 6.1 7.0 0.00 0.00 0.00 81 1006.6
20260505221502 47 340 7.0 7.0 0.00 0.00 0.00 82 1006.6
20260505221003 47 340 7.0 7.0 0.00 0.00 0.00 81 1006.6
20260505220502 47 340 7.0 7.0 0.00 0.00 0.00 82 1006.5
20260505220002 47 340 7.0 7.0 0.00 0.00 0.00 81 1006.4
20260505215503 47 340 7.0 7.0 0.00 0.00 0.00 80 1006.5
20260505215003 47 340 7.0 7.0 0.00 0.00 0.00 80 1006.5
20260505214503 47 340 7.0 7.0 0.00 0.00 0.00 80 1006.6
20260505214003 47 340 7.0 7.0 0.00 0.00 0.00 80 1006.5
20260505213502 47 340 7.0 7.0 0.00 0.00 0.00 81 1006.5
20260505213002 47 340 7.0 7.0 0.00 0.00 0.00 81 1006.4
20260505212503 47 340 7.0 7.0 0.00 0.00 0.00 82 1006.3
20260505212002 46 340 7.0 17.4 0.00 0.00 0.00 85 1006.3
20260505211002 46 330 8.7 17.4 0.00 0.00 0.00 86 1006.2
20260505210502 46 330 8.7 17.4 0.00 0.00 0.00 85 1006.1
20260505210003 46 330 8.7 17.4 0.00 0.00 0.00 84 1006.3
20260505205502 47 330 8.7 17.4 0.00 0.00 0.00 85 1006.3
20260505205003 47 330 8.7 17.4 0.00 0.00 0.00 84 1006.1
20260505204502 47 330 8.7 17.4 0.00 0.00 0.00 85 1006.0
20260505204002 46 330 8.7 17.4 0.00 0.00 0.00 84 1006.1
20260505203503 46 330 8.7 17.4 0.00 0.00 0.00 86 1006.0
20260505203002 46 330 8.7 17.4 0.00 0.00 0.00 87 1005.8
20260505202502 46 330 8.7 17.4 0.00 0.00 0.00 90 1005.7
20260505201503 46 330 11.3 18.2 0.00 0.00 0.00 93 1006.1
20260505200002 49 330 11.3 18.2 0.00 0.00 0.00 85 1005.5
20260505195502 50 330 11.3 18.2 0.00 0.00 0.00 73 1005.4
20260505194502 52 330 11.3 18.2 0.00 0.00 0.00 67 1005.1
20260505193502 53 330 11.3 18.2 0.00 0.00 0.00 65 1004.9
20260505193002 53 320 11.3 11.3 0.00 0.00 0.00 64 1004.6
20260505192502 54 320 11.3 11.3 0.00 0.00 0.00 63 1004.8
20260505192002 54 320 11.3 13.0 0.00 0.00 0.00 64 1004.6
20260505191502 54 350 13.0 13.0 0.00 0.00 0.00 63 1004.4
20260505191003 54 350 13.0 13.0 0.00 0.00 0.00 64 1004.5
20260505190503 54 350 13.0 13.0 0.00 0.00 0.00 64 1004.4
20260505190003 54 350 13.0 13.0 0.00 0.00 0.00 63 1004.4
20260505185503 54 350 13.0 13.0 0.00 0.00 0.00 63 1004.5
20260505185002 54 350 13.0 13.0 0.00 0.00 0.00 63 1004.4
20260505184503 55 350 13.0 13.0 0.00 0.00 0.00 63 1004.2
20260505184002 55 350 13.0 13.0 0.00 0.00 0.00 65 1004.1
20260505183003 54 350 13.0 13.0 0.00 0.00 0.00 65 1003.9
20260505182504 55 350 10.4 13.0 0.00 0.00 0.00 64 1003.9
20260505181502 55 310 11.3 18.2 0.00 0.00 0.00 66 1003.9
20260505181001 56 310 11.3 18.2 0.00 0.00 0.00 66 1003.8
20260505180501 56 310 11.3 18.2 0.00 0.00 0.00 67 1003.7
20260505180002 56 310 11.3 18.2 0.00 0.00 0.00 66 1003.7
20260505175503 58 310 10.4 18.2 0.00 0.00 0.00 67 1003.7
20260505175002 59 310 11.3 18.2 0.00 0.00 0.00 67 1003.4
20260505174502 59 310 11.3 18.2 0.00 0.00 0.00 67 1003.4
20260505174004 59 310 10.4 18.2 0.00 0.00 0.00 65 1003.7
20260505172503 58 310 11.3 18.2 0.00 0.00 0.00 72 1002.9
20260505172003 58 310 11.3 18.2 0.00 0.00 0.00 70 1002.6
20260505171502 58 290 8.7 8.7 0.00 0.00 0.00 71 1002.8
20260505171002 58 290 8.7 8.7 0.00 0.00 0.00 73 1002.7
20260505170002 57 290 8.7 8.7 0.00 0.00 0.00 73 1002.6
20260505165503 56 290 8.7 8.7 0.00 0.00 0.00 73 1002.8
20260505165002 55 290 8.7 8.7 0.00 0.00 0.00 75 1002.9
20260505164002 54 290 8.7 8.7 0.00 0.00 0.00 77 1003.0
20260505163503 54 290 8.7 8.7 0.00 0.00 0.00 78 1003.0
20260505163003 54 290 8.7 8.7 0.00 0.00 0.00 77 1003.0
20260505162502 54 290 8.7 8.7 0.00 0.00 0.00 78 1002.8
20260505162002 54 290 8.7 17.4 0.00 0.00 0.00 78 1002.9
20260505161503 54 280 7.8 17.4 0.00 0.00 0.00 79 1002.8
20260505161002 55 280 7.8 17.4 0.00 0.00 0.00 78 1002.6
20260505160503 55 280 7.8 17.4 0.00 0.00 0.00 77 1002.3
20260505152502 57 300 7.8 17.4 0.00 0.00 0.00 77 1001.9
20260505151502 58 300 13.9 13.9 0.00 0.00 0.00 75 1001.5
20260505140502 54 210 8.7 17.4 0.00 0.00 0.00 86 1000.4
20260505124003 52 220 12.2 21.7 0.00 0.00 0.00 88 999.3
20260505123502 52 220 12.2 21.7 0.00 0.00 0.00 89 999.2
20260505123002 52 220 12.2 21.7 0.00 0.00 0.00 90 999.2
20260505122503 52 220 12.2 21.7 0.00 0.00 0.00 90 999.1
20260505121003 51 220 7.8 7.8 0.00 0.00 0.00 91 999.2
20260505120503 51 220 7.8 7.8 0.00 0.00 0.00 90 999.4
20260505120003 51 220 7.8 7.8 0.00 0.00 0.00 91 999.4
20260505115503 50 220 7.8 7.8 0.00 0.00 0.00 91 999.3
20260505115003 50 220 7.8 7.8 0.00 0.00 0.00 91 999.1
20260505114502 50 220 7.8 7.8 0.00 0.00 0.00 92 999.0
20260505113502 50 220 7.8 7.8 0.00 0.00 0.00 92 999.3
20260505113003 49 220 7.8 7.8 0.00 0.00 0.00 92 999.5
20260505112002 50 220 7.8 18.2 0.00 0.00 0.00 92 998.8
20260505111503 49 210 7.8 18.2 0.00 0.00 0.00 92 998.8
20260505111003 49 210 7.8 18.2 0.00 0.00 0.00 93 998.8
20260505110502 49 210 7.8 18.2 0.00 0.00 0.00 93 998.9
20260505102002 49 210 7.8 18.2 0.00 0.00 0.00 92 997.9
20260505101503 49 210 8.7 8.7 0.00 0.00 0.00 92 998.0
20260505101002 49 210 8.7 8.7 0.00 0.00 0.00 93 998.2
20260505100503 49 210 8.7 8.7 0.00 0.00 0.00 93 998.2
20260505100003 49 210 8.7 8.7 0.00 0.00 0.00 93 998.2
20260505095502 49 210 8.7 8.7 0.00 0.00 0.00 93 998.2
20260505095003 49 210 8.7 8.7 0.00 0.00 0.00 93 998.1
20260505094003 49 210 8.7 8.7 0.00 0.00 0.00 93 998.2
20260505093502 49 210 8.7 8.7 0.00 0.00 0.00 93 998.2
20260505093003 49 210 8.7 8.7 0.00 0.00 0.00 93 998.2
20260505092003 49 210 8.7 8.7 0.00 0.00 0.00 93 998.0
20260505091503 49 190 2.6 2.6 0.00 0.00 0.00 93 998.0
20260505091003 49 190 2.6 2.6 0.00 0.00 0.00 93 998.1
20260505090502 49 190 2.6 2.6 0.00 0.00 0.00 93 998.1
20260505090003 50 190 2.6 2.6 0.00 0.00 0.00 93 998.0
20260505085502 50 190 2.6 2.6 0.00 0.00 0.00 93 998.1
20260505085003 50 190 2.6 2.6 0.00 0.00 0.00 93 998.2
20260505084502 50 190 2.6 2.6 0.00 0.00 0.00 94 998.0
20260505084003 49 190 2.6 2.6 0.00 0.00 0.00 94 998.1
20260505083502 49 190 2.6 2.6 0.00 0.00 0.00 94 998.2
20260505082503 49 190 2.6 2.6 0.00 0.00 0.00 94 998.4
20260505082002 49 190 2.6 7.0 0.00 0.00 0.00 94 998.3
20260505080003 48 200 7.0 7.0 0.00 0.00 0.00 93 998.4
20260505075002 48 200 7.0 7.0 0.00 0.00 0.00 93 998.6
20260505074002 48 200 7.0 7.0 0.00 0.00 0.00 93 998.5
20260505073503 48 200 7.0 7.0 0.00 0.00 0.00 93 998.4
20260505073003 48 200 7.0 7.0 0.00 0.00 0.00 93 998.4
20260505072503 48 200 7.0 7.0 0.00 0.00 0.00 93 998.4
20260505071502 48 210 7.8 17.4 0.00 0.00 0.00 93 998.6
20260505071003 48 210 7.8 17.4 0.00 0.00 0.00 93 998.6
20260505070503 48 210 7.8 17.4 0.00 0.00 0.00 93 998.7
20260505070003 48 210 7.8 17.4 0.00 0.00 0.00 93 998.7
20260505065502 48 210 7.8 17.4 0.00 0.00 0.00 93 998.7
20260505064502 48 210 7.8 17.4 0.00 0.00 0.00 93 998.9
20260505064003 48 210 7.8 17.4 0.00 0.00 0.00 93 998.9
20260505063502 48 210 7.8 17.4 0.00 0.00 0.00 93 999.0
20260505063002 48 210 7.8 17.4 0.00 0.00 0.00 93 999.1
20260505062503 48 210 7.8 17.4 0.00 0.00 0.00 93 999.1
20260505061503 47 220 10.4 10.4 0.00 0.00 0.00 92 999.1
20260505061003 47 220 10.4 10.4 0.00 0.00 0.00 92 999.2
20260505060503 47 220 10.4 10.4 0.00 0.00 0.00 92 999.2
20260505060002 47 220 10.4 10.4 0.00 0.00 0.00 91 999.3
20260505055504 47 220 10.4 10.4 0.00 0.00 0.00 91 999.3
20260505055003 48 220 10.4 10.4 0.00 0.00 0.00 90 999.1
20260505054503 48 220 10.4 10.4 0.00 0.00 0.00 90 999.0
20260505054003 48 220 10.4 10.4 0.00 0.00 0.00 90 999.1
20260505053003 48 220 10.4 10.4 0.00 0.00 0.00 90 999.3
20260505051003 49 200 7.8 7.8 0.00 0.00 0.00 90 999.4
20260505050503 49 200 7.8 7.8 0.00 0.00 0.00 89 999.4
20260505041503 50 210 6.1 6.1 0.00 0.00 0.00 83 999.4
20260505040503 50 210 6.1 6.1 0.00 0.00 0.00 82 999.3
20260505040003 51 210 6.1 6.1 0.00 0.00 0.00 81 999.3
20260505035502 51 210 6.1 6.1 0.00 0.00 0.00 81 999.4
20260505035003 51 210 6.1 6.1 0.00 0.00 0.00 81 999.4
20260505034502 51 210 6.1 6.1 0.00 0.00 0.00 81 999.5
20260505034002 51 210 6.1 6.1 0.00 0.00 0.00 80 999.5